Вернуться в каталог

STARLINK-36518

АктивенСвязьVLEO
NORAD 67453·PAYLOAD·🇺🇸 United States

Запущен Jan 14, 2026 с Cape Canaveral Space Force Station

Loading…

Ближайшие Пролёты (ближайшие 24 часа)

TLE

СвежийSource: CelesTrak SupGP

Эпоха: Sep 15, 2026, 03:10 UTC

1 67453C 26008J   26258.13243056 -.00035708  00000+0 -12936-2 0  2583
2 67453  43.0027 215.4985 0001307 269.7540  73.5592 15.27588283    12

Отслеживайте STARLINK-36518 в реальном времени с AllMySat

Download on the App Store